Time,TemperatureF,DewpointF,PressureIn,WindDirection,WindDirectionDegrees,WindSpeedMPH,WindSpeedGustMPH,Humidity,HourlyPrecipIn,Conditions,Clouds,dailyrainin,SolarRadiationWatts/m^2,SoftwareType,DateUTC
2013-09-29 01:00:00,70.0,56.0,-100.00,South,180,5.0,-999.0,60,-99.99,,,-99.99,0.000000,,2013-09-29 05:00:00,
2013-09-29 01:43:00,70.0,56.0,-100.00,South,180,5.0,-999.0,60,-99.99,,,-99.99,0.000000,,2013-09-29 05:43:00,
2013-09-29 01:53:00,70.0,56.0,-100.00,South,180,5.0,-999.0,60,-99.99,,,-99.99,0.000000,,2013-09-29 05:53:00,
2013-09-29 02:00:00,71.0,56.0,-100.00,South,180,6.0,-999.0,59,-99.99,,,-99.99,0.000000,,2013-09-29 06:00:00,
2013-09-29 02:42:00,71.0,56.0,-100.00,South,180,6.0,-999.0,59,-99.99,,,-99.99,0.000000,,2013-09-29 06:42:00,
2013-09-29 02:52:00,71.0,56.0,-100.00,South,180,6.0,-999.0,59,-99.99,,,-99.99,0.000000,,2013-09-29 06:52:00,
2013-09-29 03:00:00,70.0,56.0,-100.00,South,180,6.0,-999.0,60,-99.99,,,-99.99,0.000000,,2013-09-29 07:00:00,
2013-09-29 03:43:00,70.0,56.0,-100.00,South,180,6.0,-999.0,60,-99.99,,,-99.99,0.000000,,2013-09-29 07:43:00,
2013-09-29 03:52:00,70.0,56.0,-100.00,South,180,6.0,-999.0,60,-99.99,,,-99.99,0.000000,,2013-09-29 07:52:00,
2013-09-29 04:00:00,70.0,57.0,-100.00,SSW,202,5.0,-999.0,63,-99.99,,,-99.99,0.000000,,2013-09-29 08:00:00,
2013-09-29 04:42:00,70.0,57.0,-100.00,SSW,202,5.0,-999.0,63,-99.99,,,-99.99,0.000000,,2013-09-29 08:42:00,
2013-09-29 04:52:00,70.0,57.0,-100.00,SSW,202,5.0,-999.0,63,-99.99,,,-99.99,0.000000,,2013-09-29 08:52:00,
2013-09-29 05:00:00,64.0,63.0,-100.00,West,270,7.0,-999.0,96,0.15,,,-99.99,0.000000,,2013-09-29 09:00:00,
2013-09-29 05:43:00,64.0,63.0,-100.00,West,270,7.0,-999.0,96,0.15,,,-99.99,0.000000,,2013-09-29 09:43:00,
2013-09-29 05:54:00,64.0,63.0,-100.00,West,270,7.0,-999.0,96,0.15,,,-99.99,0.000000,,2013-09-29 09:54:00,
2013-09-29 06:00:00,59.0,59.0,-100.00,NNW,337,8.0,-999.0,101,0.05,,,-99.99,0.000000,,2013-09-29 10:00:00,
2013-09-29 06:43:00,59.0,59.0,-100.00,NNW,337,8.0,-999.0,101,0.05,,,-99.99,0.000000,,2013-09-29 10:43:00,
2013-09-29 06:53:00,59.0,59.0,-100.00,NNW,337,8.0,-999.0,101,0.05,,,-99.99,0.000000,,2013-09-29 10:53:00,
2013-09-29 07:00:00,57.0,57.0,-100.00,NNW,337,7.0,-999.0,102,0.04,,,-99.99,0.000000,,2013-09-29 11:00:00,
2013-09-29 07:42:00,57.0,57.0,-100.00,NNW,337,7.0,-999.0,102,0.04,,,-99.99,0.000000,,2013-09-29 11:42:00,
2013-09-29 07:52:00,57.0,57.0,-100.00,NNW,337,7.0,-999.0,102,0.04,,,-99.99,0.000000,,2013-09-29 11:52:00,
2013-09-29 08:00:00,57.0,57.0,-100.00,NW,315,5.0,-999.0,102,-99.99,,,-99.99,1.160000,,2013-09-29 12:00:00,
2013-09-29 08:42:00,57.0,57.0,-100.00,NW,315,5.0,-999.0,102,-99.99,,,-99.99,1.160000,,2013-09-29 12:42:00,
2013-09-29 08:52:00,57.0,57.0,-100.00,NW,315,5.0,-999.0,102,-99.99,,,-99.99,1.160000,,2013-09-29 12:52:00,
2013-09-29 09:00:00,56.0,56.0,-100.00,SSW,202,3.0,-999.0,102,-99.99,,,-99.99,31.320000,,2013-09-29 13:00:00,
2013-09-29 09:42:00,56.0,56.0,-100.00,SSW,202,3.0,-999.0,102,-99.99,,,-99.99,31.320000,,2013-09-29 13:42:00,
2013-09-29 09:53:00,56.0,56.0,-100.00,SSW,202,3.0,-999.0,102,-99.99,,,-99.99,31.320000,,2013-09-29 13:53:00,
2013-09-29 10:00:00,58.0,58.0,-100.00,WSW,247,3.0,-999.0,101,-99.99,,,-99.99,191.399994,,2013-09-29 14:00:00,
2013-09-29 10:43:00,58.0,58.0,-100.00,WSW,247,3.0,-999.0,101,-99.99,,,-99.99,191.399994,,2013-09-29 14:43:00,
2013-09-29 10:52:00,58.0,58.0,-100.00,WSW,247,3.0,-999.0,101,-99.99,,,-99.99,191.399994,,2013-09-29 14:52:00,
2013-09-29 11:00:00,60.0,58.0,-100.00,NW,315,5.0,-999.0,92,-99.99,,,-99.99,182.119995,,2013-09-29 15:00:00,
2013-09-29 11:45:00,60.0,58.0,-100.00,NW,315,5.0,-999.0,92,-99.99,,,-99.99,182.119995,,2013-09-29 15:45:00,
2013-09-29 11:55:00,60.0,58.0,-100.00,NW,315,5.0,-999.0,92,-99.99,,,-99.99,182.119995,,2013-09-29 15:55:00,
2013-09-29 13:00:00,63.0,53.0,-100.00,NW,315,8.0,-999.0,68,-99.99,,,-99.99,422.239990,,2013-09-29 17:00:00,
2013-09-29 13:43:00,63.0,53.0,-100.00,NW,315,8.0,-999.0,68,-99.99,,,-99.99,422.239990,,2013-09-29 17:43:00,
2013-09-29 13:52:00,63.0,53.0,-100.00,NW,315,8.0,-999.0,68,-99.99,,,-99.99,422.239990,,2013-09-29 17:52:00,
2013-09-29 15:00:00,66.0,51.0,-100.00,WNW,292,7.0,-999.0,58,-99.99,,,-99.99,530.119995,,2013-09-29 19:00:00,
2013-09-29 15:42:00,66.0,51.0,-100.00,WNW,292,7.0,-999.0,58,-99.99,,,-99.99,530.119995,,2013-09-29 19:42:00,
2013-09-29 15:52:00,66.0,51.0,-100.00,WNW,292,7.0,-999.0,58,-99.99,,,-99.99,530.119995,,2013-09-29 19:52:00,
2013-09-29 16:00:00,66.0,52.0,-100.00,NW,315,8.0,-999.0,62,-99.99,,,-99.99,509.239990,,2013-09-29 20:00:00,
2013-09-29 16:43:00,66.0,52.0,-100.00,NW,315,8.0,-999.0,62,-99.99,,,-99.99,509.239990,,2013-09-29 20:43:00,
2013-09-29 16:52:00,66.0,52.0,-100.00,NW,315,8.0,-999.0,62,-99.99,,,-99.99,509.239990,,2013-09-29 20:52:00,
2013-09-29 17:00:00,65.0,53.0,-100.00,NW,315,7.0,-999.0,65,-99.99,,,-99.99,367.720001,,2013-09-29 21:00:00,
2013-09-29 17:44:00,65.0,53.0,-100.00,NW,315,7.0,-999.0,65,-99.99,,,-99.99,367.720001,,2013-09-29 21:44:00,
2013-09-29 17:55:00,65.0,53.0,-100.00,NW,315,7.0,-999.0,65,-99.99,,,-99.99,367.720001,,2013-09-29 21:55:00,
2013-09-29 18:00:00,64.0,53.0,-100.00,NW,315,7.0,-999.0,68,-99.99,,,-99.99,206.479996,,2013-09-29 22:00:00,
2013-09-29 18:43:00,64.0,53.0,-100.00,NW,315,7.0,-999.0,68,-99.99,,,-99.99,206.479996,,2013-09-29 22:43:00,
2013-09-29 18:53:00,64.0,53.0,-100.00,NW,315,7.0,-999.0,68,-99.99,,,-99.99,206.479996,,2013-09-29 22:53:00,
2013-09-29 19:00:00,63.0,53.0,-100.00,NW,315,6.0,-999.0,69,-99.99,,,-99.99,125.279999,,2013-09-29 23:00:00,
2013-09-29 19:43:00,63.0,53.0,-100.00,NW,315,6.0,-999.0,69,-99.99,,,-99.99,125.279999,,2013-09-29 23:43:00,
2013-09-29 19:53:00,63.0,53.0,-100.00,NW,315,6.0,-999.0,69,-99.99,,,-99.99,125.279999,,2013-09-29 23:53:00,
2013-09-29 21:00:00,51.0,50.0,-100.00,West,270,0.0,-999.0,94,-99.99,,,-99.99,0.000000,,2013-09-30 01:00:00,
2013-09-29 21:42:00,51.0,50.0,-100.00,West,270,0.0,-999.0,94,-99.99,,,-99.99,0.000000,,2013-09-30 01:42:00,
2013-09-29 21:52:00,51.0,50.0,-100.00,West,270,0.0,-999.0,94,-99.99,,,-99.99,0.000000,,2013-09-30 01:52:00,
2013-09-29 23:00:00,47.0,47.0,-100.00,South,180,0.0,-999.0,100,-99.99,,,-99.99,0.000000,,2013-09-30 03:00:00,
2013-09-29 23:45:00,47.0,47.0,-100.00,South,180,0.0,-999.0,100,-99.99,,,-99.99,0.000000,,2013-09-30 03:45:00,
2013-09-29 23:55:00,47.0,47.0,-100.00,South,180,0.0,-999.0,100,-99.99,,,-99.99,0.000000,,2013-09-30 03:55:00,